sat.trackr.live / text

‹ back to catalog

STARLINK-32749

NORAD 62508 · 2025-003X

PAYLOAD ACTIVE UNKNOWN

§ Identity

Operator
Country
US
Launch date
2025-01-06
Launch site
AFETR
Launch vehicle
Mass (kg)
RCS (m²)

Purposes: comms

External: N2YO · Heavens-Above · Gunter

§ Orbital elements

Epoch: 2026-09-21T01:33:28.984320Z

Period
94.27 min
Inclination
43.0006°
Eccentricity
0.0001281
Mean motion
15.27593454 rev/d
Perigee alt
482.1 km
Apogee alt
483.9 km
Semi-major
6,861.1 km
B*
4.5311e-4
RAAN
265.4226°
Arg perigee
260.0223°
Mean anomaly
100.0484°
Rev number
9,643

§ Raw data

STARLINK-327491 62508U 25003X   26264.06491880  .00012232  00000+0  45311-3 0  99932 62508  43.0006 265.4226 0001281 260.0223 100.0484 15.27593454 96434

JSON: /api/v1/satellites/62508 · /tle

For live sub-satellite position, see the globe view (requires WebGL).

§ Visibility from observer

Set your observer location to see the next 7 days of passes ≥ 10°. The values pass through the URL so the page stays shareable.

No JS? Fill the form by hand. The geolocation button needs JavaScript.